* Astronomy

Members Login
Username 
 
Password 
    Remember Me  
Post Info TOPIC: Asteroid 2011 WC44


L

Posts: 131433
Date:
Asteroid 2011 WC44
Permalink  
 


Orbital elements:
2011 WC44                                                Earth MOID = 0.0980 AU
Epoch 2011 Aug. 27.0 TT = JDT 2455800.5                 MPC
M 352.63786              (2000.0)            P               Q
n   0.29289281     Peri.   91.26266     +0.85790247     +0.40124965
a   2.2455889      Node   245.16183     -0.48269521     +0.84345435
e   0.6757679      Incl.   20.71091     +0.17609285     +0.35718829
P   3.37           H   20.5           G   0.15           U   9

MPEC 2011 - W59



__________________
Page 1 of 1  sorted by
 
Quick Reply

Please log in to post quick replies.



Create your own FREE Forum
Report Abuse
Powered by ActiveBoard